Weather in Shubarkuduk

Kazakhstan     49°08′45″N   56°29′11″E
temp.,
°C
wind,
m/s
gust,
m/s
humid.,
%
clouds,
%
prec.,
mm/h
press.,
hPa
HPBL,
m
10 may, mon
mon1023:00+17ne334086 0.0 101612
02:00+15ene33490 0.0 101627
05:00+14e33544 0.0 101613
08:00+17ene464917 0.0 1017236
11:00+21e66375 0.0 1017986
14:00+24ene442937 0.0 10172091
17:00+24e553296 0.0 10162165
20:00+21e354419 0.0 101771
11 may, tue
tue1123:00+18e71449100 0.0 1018379
02:00+16ese7146263 0.0 1019396
05:00+14ese6136997 0.0 1021367
08:00+15ese710645 0.0 1023504
11:00+20ese78455 0.0 1023981
14:00+23e773556 0.0 10231427
17:00+23e773034 0.0 10231631
20:00+20e5103857 0.0 1024266
12 may, wed
wed1223:00+16e5124652 0.0 1024252
02:00+15e6135565 0.0 1025290
05:00+14e7135889 0.0 1025321
08:00+15ese71148100 0.0 1026444
11:00+20ese783679 0.0 10261085
14:00+23ese783066 0.0 10251646
17:00+24ese67295 0.0 10251962
20:00+21e58375 0.0 1025176
13 may, thu
thu1323:00+17e613386 0.0 1025254
02:00+15e6134039 0.0 1026229
05:00+13e5134757 0.0 1026213
08:00+17ese611465 0.0 1026347
11:00+22ese67295 0.0 10261274
14:00+25ese66235 0.0 10251962
17:00+26ese56225 0.0 10251999
20:00+22e46340 0.0 102582
14 may, fri
fri1423:00+18e47370 0.0 102582
02:00+16e45400 0.0 102654
05:00+15ese33420 0.0 102622
08:00+19e46380 0.0 1027191
11:00+25ese56285 0.0 10271533
14:00+27ese45284 0.0 10262400
17:00+28ese55282 0.0 10252657
20:00+24e45390 0.0 102568